CAPE
0 0 0 0 0 0 0 0 0 0 0 0 0 0 0 0 0 0 0 0 0 0 0 0 0 0 0 0 0 0 0 0 0 0 0 0 0 0 1 0 1 9 1 0
0 0 0 0 0 0 0 0 0 0 0 0 0 0 0 0 0 0 0 0 0 0 0 0 0 0 0 0 0 0 0 0 0 0 0 0 0 0 0 0 0 0 0 2
0 0 0 0 0 0 0 0 0 0 0 0 0 0 0 0 0 0 0 0 0 0 0 0 0 0 0 0 0 0 0 0 0 0 0 0 0 0 0 0 0 0 0 0
0 0 0 0 0 0 0 0 0 0 0 0 0 0 0 0 0 0 0 0 0 0 0 0 0 0 0 0 0 0 0 0 0 0 0 0 0 0 0 0 0 0 0 0
0 0 0 0 0 0 0 0 0 0 0 0 0 0 0 0 0 0 0 0 0 0 0 0 0 0 0 0 0 0 0 0 0 0 0 0 0 0 0 0 0 0 0 0
0 0 0 0 0 0 0 0 0 0 0 0 0 0 0 0 0 0 0 0 0 0 0 0 0 0 0 0 0 0 0 0 0 0 0 0 0 0 0 0 0 0 0 0
0 0 0 0 0 0 0 0 0 0 0 0 0 0 0 0 0 0 0 0 0 0 0 0 0 0 0 0 0 0 0 0 0 0 0 0 0 0 0 0 0 0 3 3
0 0 0 0 0 0 0 0 0 0 0 0 0 0 0 0 0 0 0 0 0 0 0 0 0 0 0 0 0 0 0 0 0 0 0 0 0 0 0 0 0 0 0 2
0 0 0 0 0 0 0 0 0 0 0 0 0 0 0 0 0 0 0 0 0 0 0 0 0 0 0 0 0 0 0 0 0 0 0 0 0 0 0 0 0 0 0 0
0 0 0 0 0 0 0 0 0 0 0 0 0 0 0 0 0 0 0 0 0 0 0 0 0 0 0 0 0 0 0 0 0 0 0 0 0 0 0 0 0 0 0 0
0 0 0 0 0 0 0 0 0 0 0 0 0 0 0 0 0 0 0 0 0 0 0 0 0 0 0 0 0 0 0 0 0 0 0 0 0 0 0 0 0 0 0 0
0 0 0 0 0 0 0 0 0 0 0 0 0 0 0 0 0 0 0 0 0 0 0 0 0 0 0 0 0 0 0 0 0 0 0 0 0 0 0 0 0 0 0 0
0 0 0 0 0 0 0 0 0 0 0 0 0 0 0 0 0 0 0 0 0 0 0 0 0 0 0 0 0 0 0 0 0 0 0 0 0 0 0 0 0 0 0 0
0 0 0 0 0 0 0 0 0 0 0 0 0 0 0 0 0 0 0 0 0 0 0 0 0 0 0 0 0 0 0 0 0 0 0 0 0 0 0 0 0 0 0 0
1 0 0 0 0 0 0 0 0 0 0 0 0 0 0 0 0 0 0 0 0 0 0 0 0 0 0 0 0 0 0 0 0 0 0 0 0 0 0 0 0 0 0 0
1 0 0 0 0 0 0 0 0 0 0 0 0 0 0 0 0 0 0 0 0 0 0 0 0 0 0 0 0 0 0 0 0 0 0 0 0 0 0 0 0 0 0 0
0 0 0 0 0 0 0 0 0 0 0 0 0 0 0 0 0 0 0 0 0 0 0 0 0 0 0 0 0 0 0 0 0 0 0 0 0 0 0 0 0 0 0 0
0 1 0 0 0 0 0 0 0 0 1 4 1 2 2 0 0 0 0 0 0 0 0 0 0 0 0 0 0 0 0 0 0 0 0 0 0 0 0 0 0 0 0 0
2 2 1 1 0 0 0 0 0 1 0 1 2 1 1 0 0 0 0 0 0 0 0 0 0 0 0 0 0 0 0 0 0 0 0 0 0 0 0 0 0 0 0 0
2 1 0 0 1 0 0 0 0 0 0 1 1 2 1 0 0 0 1 0 0 0 0 0 0 0 0 0 0 0 0 0 0 0 0 0 0 0 0 0 0 0 0 0
0 0 0 0 0 0 0 1 0 0 0 0 0 1 0 0 2 1 1 0 0 0 0 0 0 0 0 0 0 0 0 0 0 0 0 0 0 0 0 0 0 0 0 0
0 0 0 0 0 0 0 0 0 0 0 0 0 0 0 0 0 1 0 0 0 0 0 0 0 0 0 0 0 0 0 0 0 0 0 0 0 0 0 0 0 0 0 0
0 0 0 0 0 0 0 0 0 0 0 0 0 0 0 0 0 0 0 0 0 0 0 0 0 0 0 0 0 0 0 0 0 0 0 0 0 0 0 0 0 0 0 0
0 0 0 0 0 0 0 0 0 0 0 0 0 0 0 0 0 2 1 1 1 2 0 0 0 0 0 0 0 0 0 0 0 0 0 0 0 0 0 0 0 0 0 0
0 0 0 0 0 0 0 0 0 0 0 0 0 0 0 0 0 1 1 1 1 1 1 2 1 0 0 0 0 0 0 0 0 0 0 0 0 0 0 0 0 0 0 0
0 0 0 0 0 0 0 0 0 0 0 0 0 0 0 0 0 0 0 0 0 0 0 0 0 0 0 1 1 0 0 0 0 0 0 0 0 0 0 0 0 0 0 0
CIN
0 0 0 0 0 0 0 0 0 0 0 0 0 0 0 0 0 0 0 0 0 0 0 0 0 0 0 0 0 0 0 0 0 0 0 0 0 0 -11 0 -15 -16 -15 0
0 0 0 0 0 0 0 0 0 0 0 0 0 0 0 0 0 0 0 0 0 0 0 0 0 0 0 0 0 0 0 0 0 0 0 0 0 0 -1 0 0 0 0 -18
0 0 0 0 0 0 0 0 0 0 0 0 0 0 0 0 0 0 0 0 0 0 0 0 0 0 0 0 0 0 0 0 0 0 0 0 0 -1 0 0 0 0 0 0
0 0 0 0 0 0 0 0 0 0 0 0 0 0 0 0 0 0 0 0 0 0 0 0 0 0 0 0 0 0 0 0 0 0 0 0 0 0 -3 0 0 0 0 0
0 0 0 0 0 0 0 0 0 0 0 0 0 0 0 0 0 0 0 0 0 0 0 0 0 0 0 0 0 0 0 0 0 0 0 0 0 0 0 0 0 0 0 0
0 0 0 0 0 0 0 0 0 0 0 0 0 0 0 0 0 0 0 0 0 0 0 0 0 0 0 0 0 0 0 0 0 0 0 0 0 0 0 0 0 0 0 0
0 0 0 0 0 0 0 0 0 0 0 0 0 0 0 0 0 0 0 0 0 0 0 0 0 0 0 0 0 0 0 0 0 0 0 0 0 0 0 0 0 -2 -1 0
0 0 0 0 0 0 0 0 0 0 0 0 0 0 0 0 0 0 0 0 0 0 0 0 0 0 0 0 0 0 0 0 0 0 0 0 0 0 0 0 0 0 0 -9
0 0 0 0 0 0 0 0 0 0 0 0 0 0 0 0 0 0 0 0 0 0 0 0 0 0 0 0 0 0 0 0 0 0 0 0 0 0 0 0 0 0 0 0
0 0 0 0 0 0 0 0 0 0 0 0 0 0 0 0 0 0 0 0 0 0 0 0 0 0 0 0 0 0 0 0 0 0 0 0 0 0 0 0 0 0 0 0
0 0 0 0 0 0 0 0 0 0 0 0 0 0 0 0 0 0 0 0 0 0 0 0 0 0 0 0 0 0 0 0 0 0 0 0 0 0 0 0 0 0 0 0
0 0 0 0 0 0 0 0 0 0 0 0 0 0 0 0 0 0 0 0 0 0 0 0 0 0 0 0 0 0 0 0 0 0 0 0 0 0 0 0 0 0 0 0
0 0 0 0 0 0 0 0 0 0 0 0 0 0 0 0 0 0 0 0 0 0 0 0 0 0 0 0 0 0 0 0 0 0 0 0 0 0 0 0 0 0 0 0
0 0 0 0 0 0 0 0 0 0 0 0 0 0 0 0 0 0 0 0 0 0 0 0 0 0 0 0 0 0 0 0 0 0 0 0 0 0 0 0 0 0 0 0
0 0 0 0 0 0 0 0 0 0 0 0 0 0 0 0 0 0 0 0 0 0 0 0 0 0 0 0 0 0 0 0 0 0 0 0 0 0 0 0 0 0 0 0
0 0 0 0 0 0 0 0 0 0 0 0 0 0 0 0 0 0 0 0 0 0 0 0 0 0 0 0 0 0 0 0 0 0 0 0 0 0 0 0 0 0 0 0
0 0 0 0 0 0 0 0 0 0 0 0 0 0 0 0 0 0 0 0 0 0 0 0 0 0 0 0 0 0 0 0 0 0 0 0 0 0 0 0 0 0 0 0
0 0 0 0 0 0 0 0 0 0 0 0 0 0 0 0 0 0 0 0 0 0 0 0 0 0 0 0 0 0 0 0 0 0 0 0 0 0 0 0 0 0 0 0
0 0 -3 -2 0 0 0 0 0 0 0 0 0 0 0 0 0 0 0 0 0 0 0 0 0 0 0 0 0 0 0 0 0 0 0 0 0 0 0 0 0 0 0 0
0 0 0 -1 -6 0 0 0 0 0 0 0 0 0 0 0 0 0 0 0 0 0 0 0 0 0 0 0 0 0 0 0 0 0 0 0 0 0 0 0 0 0 0 0
0 0 0 0 -1 0 0 0 0 0 0 0 0 0 0 0 0 0 0 0 0 0 0 0 0 0 0 0 0 0 0 0 0 0 0 0 0 0 0 0 0 0 0 0
0 0 0 0 0 0 0 0 0 0 0 0 0 0 0 0 0 0 0 0 0 0 0 0 0 0 0 0 0 0 0 0 0 0 0 0 0 0 0 0 0 0 0 0
0 0 0 0 0 0 0 0 0 0 0 0 0 0 0 0 0 0 0 0 0 0 0 0 0 0 0 0 0 0 0 0 0 0 0 0 0 0 0 0 0 0 0 0
0 0 0 0 0 0 0 0 0 0 0 0 0 0 0 0 0 0 0 0 0 0 0 0 0 0 0 0 0 0 0 0 0 0 0 0 0 0 0 0 0 0 0 0
0 0 0 0 0 0 0 0 0 0 0 0 0 0 0 0 0 0 0 0 0 0 0 0 0 0 0 0 0 0 0 0 0 0 0 0 0 0 0 0 0 0 0 0
0 0 0 0 0 0 0 0 0 0 0 0 0 0 0 0 0 0 0 0 0 0 0 0 0 0 0 0 0 0 0 0 0 0 0 0 0 0 0 0 0 0 0 0
Wind_Speed
23 25 28 23 22 24 24 29 32 31 30 33 36 39 39 39 34 32 25 10 5 3 2 1 2 2 4 7 9 11 14 16 18 21 21 22 26 24 24 20 20 20 20 21
24 36 29 26 26 29 32 34 34 32 27 32 36 41 40 37 29 19 24 20 9 1 2 1 2 3 4 5 8 11 14 16 17 19 18 19 23 22 23 21 23 22 20 21
28 27 24 27 26 28 30 34 32 35 33 34 36 39 29 25 28 22 20 20 22 5 2 1 1 3 5 5 7 10 13 15 17 17 18 19 22 23 24 24 23 23 22 23
32 36 29 26 28 25 35 28 31 32 33 36 28 40 34 33 28 25 19 18 17 12 2 0 1 2 3 4 6 9 12 14 15 16 18 21 24 24 22 22 23 23 22 23
29 27 27 30 29 24 31 24 25 27 31 35 32 35 34 31 32 25 17 15 13 10 2 1 1 1 3 3 6 9 11 13 14 15 16 19 22 22 22 23 24 23 23 23
31 23 23 25 24 25 19 24 26 28 30 40 35 28 35 26 22 22 19 17 14 10 4 2 1 1 2 4 6 8 10 12 13 14 15 16 19 21 21 23 23 22 23 24
33 32 26 23 25 22 22 23 32 34 34 39 27 28 35 26 24 23 24 20 16 10 4 2 3 2 2 2 5 7 10 11 12 13 13 14 17 19 20 20 22 22 22 22
38 42 32 28 29 29 26 27 30 37 36 34 26 35 28 22 25 26 22 17 14 8 2 2 3 4 2 2 4 6 9 10 10 11 11 12 14 16 17 18 19 20 20 20
35 38 26 25 27 24 28 33 26 33 33 39 36 36 38 30 25 23 21 18 13 7 1 2 2 3 2 1 2 5 8 9 9 9 10 10 11 13 14 15 17 18 19 20
32 38 29 28 26 28 29 24 31 31 39 44 38 35 32 28 27 24 22 19 14 8 3 1 2 2 1 0 2 5 7 7 8 7 8 8 8 9 11 12 14 16 19 20
32 35 35 29 35 32 31 33 30 29 33 40 42 36 25 27 27 28 22 17 14 10 7 4 3 2 2 1 2 4 5 7 7 6 6 6 5 7 7 9 10 12 15 18
28 31 42 40 30 30 33 35 32 36 35 34 36 42 30 29 29 29 25 19 15 13 10 8 5 3 3 2 2 2 4 6 7 6 5 4 4 4 5 5 7 9 10 14
21 29 37 39 38 34 37 36 36 34 34 43 41 36 23 23 25 25 24 23 17 12 11 9 7 6 5 4 4 5 6 6 6 7 6 4 1 2 2 2 3 6 7 9
22 28 33 39 33 27 38 40 38 38 44 45 46 39 27 26 28 28 25 23 18 14 12 11 11 11 10 9 9 10 10 8 7 7 6 4 1 2 3 3 2 2 4 4
24 35 35 37 32 31 32 32 34 40 41 40 39 39 37 32 30 28 26 25 20 18 17 15 17 16 15 15 14 14 13 11 10 8 8 5 3 6 6 6 5 4 3 2
27 35 32 41 38 38 43 38 35 37 41 47 47 44 27 28 29 30 29 28 28 28 27 25 23 21 18 16 16 15 15 14 10 11 11 9 8 9 8 8 8 8 7 6
30 31 34 43 35 34 43 43 42 37 30 36 45 42 41 40 33 32 31 29 29 29 30 30 32 27 20 17 15 15 16 16 14 14 14 13 11 10 10 10 10 10 9 9
30 31 33 39 33 45 32 27 29 27 28 31 35 36 36 35 31 24 29 30 32 33 34 34 33 31 30 29 24 21 17 14 16 17 16 15 14 13 13 12 11 11 11 10
36 33 36 40 41 37 31 28 28 28 29 27 31 33 35 37 31 25 32 32 33 33 34 34 34 32 31 31 33 28 22 19 20 19 19 18 16 16 14 14 14 14 12 11
35 38 39 37 43 44 32 34 29 26 36 27 28 30 33 31 31 34 36 34 34 34 34 35 34 32 33 35 35 32 30 26 26 25 23 20 17 17 16 17 17 16 14 12
32 34 43 46 44 35 33 31 25 35 34 27 28 29 30 30 29 32 33 33 32 33 33 34 33 33 34 35 34 32 32 33 36 32 26 23 21 20 20 20 20 18 16 15
32 33 35 37 41 44 30 25 30 25 24 28 30 31 31 31 31 32 33 34 34 35 35 34 34 34 33 34 33 33 33 35 35 34 32 28 25 24 24 23 22 20 19 18
34 30 33 31 32 22 24 21 19 24 29 31 32 32 33 35 35 36 37 36 36 36 36 35 35 35 34 34 33 34 35 36 37 36 35 33 29 27 26 25 24 23 22 21
29 27 33 33 28 30 27 24 25 27 30 30 30 33 32 35 36 38 38 39 38 37 37 37 37 38 38 36 35 34 36 36 36 36 36 34 32 31 29 28 27 26 25 24
33 33 33 36 33 27 25 28 29 31 31 32 33 35 36 37 39 38 40 40 39 39 39 38 39 40 40 39 38 37 37 37 37 36 36 35 34 33 33 32 31 30 29 27
24 28 31 33 28 31 32 30 31 32 33 35 38 40 38 38 40 40 40 40 41 42 42 42 42 43 42 41 41 39 37 37 37 37 37 36 36 36 35 35 36 35 34 33
Wind_Direction
263 261 260 268 271 275 280 275 274 280 287 285 283 269 272 279 267 258 245 233 251 229 180 7 357 35 18 15 18 19 19 21 20 19 25 28 26 33 36 48 54 62 75 84
264 256 266 270 272 271 270 270 274 286 291 288 288 272 272 275 277 332 322 327 332 321 61 52 40 357 357 19 23 20 21 23 27 27 33 36 35 40 43 56 62 70 90 102
262 270 276 265 270 270 273 272 279 280 290 290 289 284 306 314 315 326 330 328 327 354 134 128 14 13 359 12 26 26 25 26 30 34 36 37 39 41 47 58 67 81 97 106
264 262 269 267 268 273 269 281 282 284 288 282 301 274 295 300 308 321 328 330 330 344 13 315 127 356 6 13 30 30 30 30 31 38 37 33 36 44 53 66 78 89 104 110
264 270 264 263 269 272 276 287 289 289 286 286 288 284 283 305 301 318 335 342 343 347 2 245 162 16 2 31 22 26 29 28 34 40 41 39 43 50 59 69 80 91 96 111
263 275 272 269 277 276 283 286 289 289 286 278 284 289 280 304 314 321 333 341 343 349 353 107 18 14 6 14 16 17 24 27 35 40 47 46 46 51 60 69 81 91 98 104
262 263 271 272 270 276 277 280 277 278 278 277 292 285 282 304 303 315 321 326 330 346 10 110 125 123 96 26 16 16 20 24 35 38 49 51 49 55 63 73 83 90 99 112
255 259 258 263 264 269 266 269 272 275 277 282 289 278 289 308 309 312 321 327 331 343 22 120 128 130 120 44 19 14 17 24 32 33 45 55 55 57 66 72 83 90 97 114
259 261 268 266 266 264 268 265 276 279 282 280 282 285 290 300 306 312 319 324 322 330 16 129 133 139 134 88 32 15 12 17 27 33 40 55 55 58 66 71 82 93 98 103
262 262 268 265 267 266 266 270 268 272 273 274 280 283 289 301 307 310 314 312 310 306 291 227 164 171 175 78 15 3 8 16 23 29 34 52 49 53 63 71 77 88 105 104
259 263 264 264 259 258 262 263 269 273 271 273 276 283 301 305 311 313 317 314 305 293 279 269 255 228 211 255 346 358 5 6 13 21 26 43 52 38 55 72 81 82 99 113
258 264 259 260 271 267 263 263 260 264 269 274 278 278 300 305 311 314 314 314 307 293 282 279 272 243 237 233 283 328 349 356 2 11 11 24 42 12 35 65 90 88 88 111
259 263 261 264 267 267 262 261 262 268 274 268 273 282 309 316 322 319 314 311 309 298 286 279 275 258 249 256 271 295 312 326 342 354 355 355 28 341 0 38 90 103 90 99
266 265 262 262 270 273 263 262 259 260 264 267 268 276 287 307 311 313 317 315 313 305 294 287 286 283 278 276 278 286 293 300 313 326 337 327 268 278 280 297 317 140 131 115
269 265 265 265 272 274 274 273 265 256 259 266 277 272 277 291 299 311 315 314 313 302 294 291 296 293 288 282 281 282 283 286 290 298 306 306 285 288 281 277 277 279 246 212
271 268 271 267 268 270 270 272 272 268 264 264 268 270 293 296 302 304 306 305 306 298 294 293 297 298 294 287 281 279 276 276 278 284 291 297 289 285 277 271 270 271 269 264
269 269 270 268 274 273 271 270 266 270 274 271 266 273 281 282 292 297 300 303 303 305 303 303 295 295 299 298 293 286 279 276 274 278 284 285 283 279 274 273 269 265 259 260
271 270 271 271 275 266 274 291 280 266 275 278 277 280 284 285 286 294 304 302 300 302 301 301 302 301 298 296 298 295 289 275 273 276 278 278 275 274 274 270 265 264 265 251
261 269 269 268 267 273 277 283 279 272 274 289 285 287 289 284 279 276 306 304 303 301 302 301 300 300 300 301 299 292 291 286 281 278 276 275 269 269 268 268 268 271 263 259
263 261 264 267 268 267 277 281 279 279 267 292 292 292 294 294 274 282 296 300 301 303 303 303 302 302 302 300 298 292 288 288 285 284 280 276 266 264 263 268 269 271 269 258
268 265 260 262 266 270 285 288 280 264 270 288 293 296 295 291 290 293 298 301 304 304 304 306 306 304 302 302 299 295 292 286 284 285 285 281 271 264 266 269 270 267 264 264
271 270 267 267 264 262 295 285 273 278 286 289 292 294 294 295 295 296 298 299 301 303 304 306 305 304 305 306 301 296 293 292 289 288 284 282 275 269 267 267 268 265 263 261
269 274 272 273 273 282 293 290 289 291 291 292 292 295 296 294 294 296 295 297 299 301 301 303 304 303 306 306 305 299 297 296 291 287 285 280 276 271 267 264 265 263 262 261
281 283 276 279 278 279 283 286 292 295 295 297 298 298 300 296 298 296 296 295 296 299 299 301 300 299 299 303 303 302 300 298 295 290 287 283 276 273 269 265 265 262 260 259
284 284 280 279 282 285 286 290 294 296 294 294 297 296 296 296 296 298 298 296 296 296 297 299 298 297 296 299 301 302 301 300 295 293 290 285 280 275 272 268 265 263 262 257
292 287 281 280 284 287 288 294 297 295 293 295 295 294 297 296 293 296 295 297 296 296 297 297 296 295 295 295 296 300 301 301 298 294 292 289 283 278 274 272 269 267 266 264